Clintonville, WI

1:57 PM CDT on September 29, 2016 (GMT -0500)
Clintonville Municipal

Weather History for KCLI - February, 2014

Change the Weather History Date:

Thursday, February 13, 2014

  Actual Average Record
Temperature  
Mean Temperature 10 °F -  
Max Temperature 23 °F 28 °F 48 °F (1976)
Min Temperature -4 °F 7 °F -14 °F (1955)
Degree Days  
Heating Degree Days 56    
Moisture  
Dew Point 14 °F    
Average Humidity 89    
Maximum Humidity 100    
Minimum Humidity 68    
Precipitation  
Precipitation 0.01 in - - ()
Sea Level Pressure  
Sea Level Pressure 29.63 in    
Wind  
Wind Speed 4 mph (South)    
Max Wind Speed 17 mph    
Max Gust Speed 21 mph    
Visibility 5 miles    
Events Snow    
Averages and records for this station are not official NWS values.
T = Trace of Precipitation, MM = Missing Value Source: NWS Daily Summary

Daily Weather History Graph

Daily Weather History Graph

Search for Another Location

Airport or City:

Trip Planner

Search our weather history database for the weather conditions in past years. The results will help you decide how hot, cold, wet, or windy it might be!

Date:

Astronomy

Feb. 13, 2014 Rise Set
Actual Time 6:58 AM CST 5:20 PM CST
Civil Twilight 6:27 AM CST 5:50 PM CST
Nautical Twilight 5:53 AM CST 6:25 PM CST
Astronomical Twilight 5:19 AM CST 6:59 PM CST
Moon 4:29 PM CST (2/13) 5:51 AM CST (2/13)
Length of Visible Light 11h 23m
Length of Day
10h 22m
Waxing Gibbous, 99% of the Moon is Illuminated
Feb 13
Waxing Gibbous
Feb 14
Full
Feb 22
Last Quarter
Mar 1
New
Mar 8
First Quarter

Hourly Weather History & Observations

Time (CST) Temp. Windchill Dew Point Humidity Pressure Visibility Wind Dir Wind Speed Gust Speed Precip Events Conditions
12:15 AM -4.0 °F - -9.4 °F 78% 29.95 in 7.0 mi Calm Calm - N/A   Clear
12:35 AM -4.0 °F - -7.6 °F 85% 29.94 in 7.0 mi Calm Calm - N/A   Clear
12:55 AM -2.2 °F - -5.8 °F 85% 29.94 in 7.0 mi Calm Calm - N/A   Clear
1:15 AM -2.2 °F - -5.8 °F 85% 29.94 in 7.0 mi Calm Calm - N/A   Clear
1:35 AM -0.4 °F - -5.8 °F 78% 29.93 in 7.0 mi Calm Calm - N/A   Clear
1:55 AM -0.4 °F - -5.8 °F 78% 29.91 in 7.0 mi Calm Calm - N/A   Clear
2:15 AM -0.4 °F -10.4 °F -4.0 °F 85% 29.89 in 7.0 mi SSE 4.6 mph - N/A   Clear
2:35 AM 3.2 °F - -0.4 °F 85% 29.90 in 7.0 mi Calm Calm - N/A   Clear
2:55 AM 1.4 °F - -0.4 °F 92% 29.88 in 7.0 mi Calm Calm - N/A   Clear
3:15 AM 1.4 °F - -0.4 °F 92% 29.88 in 7.0 mi Calm Calm - N/A   Mostly Cloudy
3:35 AM 3.2 °F - 1.4 °F 92% 29.88 in 7.0 mi Calm Calm - N/A   Overcast
3:55 AM 3.2 °F - 1.4 °F 92% 29.86 in 7.0 mi Calm Calm - N/A   Overcast
4:15 AM 5.0 °F - 1.4 °F 85% 29.86 in 7.0 mi Calm Calm - N/A   Overcast
4:35 AM 5.0 °F - 1.4 °F 85% 29.86 in 7.0 mi Calm Calm - N/A   Overcast
4:55 AM 5.0 °F - 3.2 °F 92% 29.85 in 7.0 mi Calm Calm - N/A   Overcast
5:15 AM 8.6 °F - 5.0 °F 85% 29.84 in 7.0 mi Calm Calm - N/A   Overcast
5:35 AM 8.6 °F - 5.0 °F 85% 29.83 in 7.0 mi Calm Calm - N/A   Overcast
5:55 AM 8.6 °F 2.0 °F 6.8 °F 92% 29.80 in 5.0 mi ESE 3.5 mph - N/A   Overcast
6:15 AM 10.4 °F 2.2 °F 8.6 °F 92% 29.79 in 5.0 mi SSE 4.6 mph - N/A   Overcast
6:35 AM 12.2 °F 6.1 °F 10.4 °F 92% 29.77 in 5.0 mi SE 3.5 mph - N/A   Overcast
6:55 AM 12.2 °F 4.3 °F 10.4 °F 92% 29.76 in 7.0 mi SE 4.6 mph - N/A   Overcast
7:15 AM 14.0 °F 8.2 °F 12.2 °F 93% 29.75 in 5.0 mi SSE 3.5 mph - N/A   Overcast
7:35 AM 14.0 °F 6.5 °F 12.2 °F 93% 29.73 in 7.0 mi SE 4.6 mph - N/A   Overcast
7:55 AM 15.8 °F 8.6 °F 14.0 °F 93% 29.73 in 7.0 mi SSE 4.6 mph - N/A   Overcast
8:15 AM 15.8 °F 8.6 °F 14.0 °F 93% 29.71 in 7.0 mi SE 4.6 mph - N/A   Overcast
8:35 AM 15.8 °F 7.2 °F 14.0 °F 93% 29.70 in 2.0 mi SE 5.8 mph - N/A Snow Light Snow
8:55 AM 17.6 °F 8.2 °F 15.8 °F 93% 29.68 in 1.5 mi SE 6.9 mph - N/A Snow Light Snow
9:15 AM 17.6 °F 8.2 °F 17.6 °F 100% 29.68 in 0.8 mi SSE 6.9 mph - N/A Snow Light Snow
9:35 AM 19.4 °F 7.9 °F 19.4 °F 100% 29.66 in 0.5 mi SSE 10.4 mph - N/A Snow Snow
9:55 AM 19.4 °F 7.2 °F 19.4 °F 100% 29.65 in 0.5 mi SSE 11.5 mph 17.3 mph N/A Snow Light Snow
10:15 AM 19.4 °F 5.5 °F 19.4 °F 100% 29.63 in 1.0 mi SSE 15.0 mph 18.4 mph N/A Snow Light Snow
10:35 AM 21.2 °F 8.3 °F 19.4 °F 93% 29.62 in 0.2 mi South 13.8 mph 19.6 mph 0.01 in Snow Snow
10:55 AM 21.2 °F 7.8 °F 19.4 °F 93% 29.61 in 2.5 mi South 15.0 mph - 0.01 in Snow Light Snow
11:15 AM 21.2 °F 9.5 °F 19.4 °F 93% 29.60 in 7.0 mi South 11.5 mph 19.6 mph N/A Snow Light Snow
11:35 AM 21.2 °F 10.1 °F 19.4 °F 93% 29.58 in 7.0 mi South 10.4 mph 16.1 mph N/A Snow Light Snow
11:55 AM 21.2 °F 8.9 °F 19.4 °F 93% 29.56 in 10.0 mi South 12.7 mph 20.7 mph N/A   Overcast
12:15 PM 21.2 °F 6.8 °F 17.6 °F 86% 29.53 in 7.0 mi South 17.3 mph - N/A   Overcast
12:35 PM 23.0 °F 12.4 °F 17.6 °F 80% 29.52 in 7.0 mi South 10.4 mph 18.4 mph N/A   Overcast
12:55 PM 23.0 °F 13.9 °F 17.6 °F 80% 29.51 in 7.0 mi South 8.1 mph - N/A   Overcast
1:35 PM 23.0 °F 11.7 °F 17.6 °F 80% 29.47 in 7.0 mi South 11.5 mph - N/A   Overcast
1:55 PM 23.0 °F 13.1 °F 19.4 °F 86% 29.47 in 7.0 mi South 9.2 mph - N/A   Overcast
2:15 PM 23.0 °F 13.1 °F 19.4 °F 86% 29.46 in 5.0 mi South 9.2 mph - N/A   Overcast
2:35 PM 23.0 °F 13.1 °F 19.4 °F 86% 29.46 in 5.0 mi South 9.2 mph - N/A   Overcast
2:55 PM 23.0 °F 14.7 °F 19.4 °F 86% 29.46 in 5.0 mi South 6.9 mph - N/A   Overcast
3:15 PM 23.0 °F 15.8 °F 19.4 °F 86% 29.46 in 5.0 mi SSE 5.8 mph - N/A   Overcast
3:35 PM 23.0 °F 15.8 °F 19.4 °F 86% 29.45 in 5.0 mi South 5.8 mph - N/A   Overcast
3:55 PM 23.0 °F 15.8 °F 19.4 °F 86% 29.45 in 4.0 mi South 5.8 mph - N/A   Overcast
4:15 PM 23.0 °F 15.8 °F 19.4 °F 86% 29.46 in 4.0 mi South 5.8 mph - N/A   Overcast
4:35 PM 23.0 °F 17.0 °F 21.2 °F 93% 29.46 in 2.0 mi South 4.6 mph - N/A   Overcast
4:55 PM 23.0 °F 17.0 °F 21.2 °F 93% 29.46 in 1.8 mi South 4.6 mph - N/A Snow Light Snow
5:15 PM 23.0 °F 18.4 °F 21.2 °F 93% 29.46 in 1.5 mi South 3.5 mph - N/A Snow Light Snow
5:35 PM 23.0 °F 18.4 °F 23.0 °F 100% 29.46 in 1.2 mi South 3.5 mph - N/A Snow Light Snow
5:55 PM 23.0 °F - 23.0 °F 100% 29.46 in 2.0 mi Calm Calm - N/A Snow Light Snow
6:15 PM 23.0 °F - 23.0 °F 100% 29.46 in 1.2 mi Calm Calm - N/A Snow Light Snow
6:35 PM 23.0 °F - 21.2 °F 93% 29.46 in 2.5 mi Calm Calm - N/A Snow Light Snow
6:55 PM 23.0 °F - 21.2 °F 93% 29.46 in 2.0 mi Calm Calm - N/A Snow Light Snow
7:15 PM 23.0 °F - 21.2 °F 93% 29.46 in 1.2 mi Calm Calm - N/A Snow Light Snow
7:35 PM 23.0 °F - 21.2 °F 93% 29.46 in 3.0 mi Calm Calm - N/A Snow Light Snow
7:55 PM 23.0 °F - 21.2 °F 93% 29.46 in 3.0 mi Calm Calm - N/A Snow Light Snow
8:15 PM 23.0 °F 17.0 °F 21.2 °F 93% 29.46 in 4.0 mi West 4.6 mph - N/A Snow Light Snow
8:35 PM 23.0 °F 15.8 °F 21.2 °F 93% 29.47 in 3.0 mi West 5.8 mph - N/A Snow Light Snow
8:55 PM 23.0 °F 14.7 °F 21.2 °F 93% 29.47 in 5.0 mi West 6.9 mph - N/A Snow Light Snow
9:15 PM 23.0 °F 13.1 °F 21.2 °F 93% 29.48 in 7.0 mi West 9.2 mph - N/A Snow Light Snow
9:35 PM 23.0 °F 12.4 °F 21.2 °F 93% 29.48 in 7.0 mi West 10.4 mph - N/A   Overcast
9:55 PM 23.0 °F 11.7 °F 21.2 °F 93% 29.48 in 7.0 mi West 11.5 mph - N/A Snow Light Snow
10:15 PM 23.0 °F 12.4 °F 21.2 °F 93% 29.49 in 7.0 mi WNW 10.4 mph - N/A   Overcast
10:35 PM 23.0 °F 12.4 °F 19.4 °F 86% 29.49 in 7.0 mi NW 10.4 mph 18.4 mph N/A   Overcast
10:55 PM 23.0 °F 11.1 °F 17.6 °F 80% 29.50 in 10.0 mi NW 12.7 mph 17.3 mph N/A   Overcast
11:15 PM 23.0 °F 12.4 °F 17.6 °F 80% 29.50 in 10.0 mi NW 10.4 mph - N/A   Overcast
11:35 PM 23.0 °F 9.6 °F 14.0 °F 68% 29.51 in 10.0 mi NW 16.1 mph 20.7 mph N/A   Mostly Cloudy
11:55 PM 21.2 °F 10.1 °F 14.0 °F 74% 29.51 in 10.0 mi WNW 10.4 mph - N/A   Mostly Cloudy